Martinsburg, WV

1:35 AM EDT on May 23, 2017 (GMT -0400)
Eastern W Va Regional-Shepherd

Weather History for KMRB - March, 2013

Change the Weather History Date:

Friday, March 15, 2013

  Actual Average Record
Temperature  
Mean Temperature 43 °F 42 °F  
Max Temperature 57 °F 52 °F 83 °F (1989)
Min Temperature 28 °F 31 °F -3 °F (1993)
Degree Days  
Heating Degree Days 22 23  
Month to date heating degree days 368 387  
Since 1 July heating degree days 4003 4343  
Cooling Degree Days 0 0  
Month to date cooling degree days 0 0  
Year to date cooling degree days 0 0  
Moisture  
Dew Point 23 °F    
Average Humidity 46    
Maximum Humidity 63    
Minimum Humidity 28    
Precipitation  
Precipitation 0.00 in 0.12 in 1.10 in (1940)
Month to date precipitation 0.97 1.56  
Year to date precipitation 5.79 6.34  
Sea Level Pressure  
Sea Level Pressure 29.93 in    
Wind  
Wind Speed 10 mph (WSW)    
Max Wind Speed 16 mph    
Max Gust Speed 21 mph    
Visibility 10 miles    
Events      
T = Trace of Precipitation, MM = Missing Value Source: NWS Daily Summary

Daily Weather History Graph

Daily Weather History Graph

Search for Another Location

Airport or City:

Trip Planner

Search our weather history database for the weather conditions in past years. The results will help you decide how hot, cold, wet, or windy it might be!

Date:

Astronomy

Mar. 15, 2013 Rise Set
Actual Time 7:22 AM EDT 7:19 PM EDT
Civil Twilight 6:56 AM EDT 7:45 PM EDT
Nautical Twilight 6:25 AM EDT 8:17 PM EDT
Astronomical Twilight 5:53 AM EDT 8:48 PM EDT
Moon 9:13 AM EDT (3/15) 11:29 PM EDT (3/15)
Length of Visible Light 12h 49m
Length of Day
11h 56m
Waxing Crescent, 15% of the Moon is Illuminated
Mar 15
Waxing Crescent
Mar 19
First Quarter
Mar 27
Full
Apr 3
Last Quarter
Apr 10
New

Hourly Weather History & Observations

Time (EDT) Temp. Windchill Dew Point Humidity Pressure Visibility Wind Dir Wind Speed Gust Speed Precip Events Conditions
12:53 AM 37.0 °F 31.6 °F 16.0 °F 42% 30.12 in 10.0 mi WNW 6.9 mph - N/A   Clear
1:53 AM 36.0 °F 28.0 °F 17.1 °F 46% 30.10 in 10.0 mi WNW 11.5 mph - N/A   Clear
2:53 AM 35.1 °F 27.9 °F 18.0 °F 50% 30.09 in 10.0 mi West 9.2 mph - N/A   Clear
3:53 AM 36.0 °F 29.0 °F 17.1 °F 46% 30.08 in 10.0 mi WNW 9.2 mph - N/A   Clear
4:53 AM 35.1 °F 28.6 °F 17.1 °F 48% 30.07 in 10.0 mi WNW 8.1 mph - N/A   Clear
5:53 AM 32.0 °F 27.5 °F 17.1 °F 54% 30.06 in 10.0 mi SW 4.6 mph - N/A   Clear
6:53 AM 28.9 °F - 17.1 °F 61% 30.06 in 10.0 mi Calm Calm - N/A   Clear
7:53 AM 35.1 °F 30.1 °F 16.0 °F 46% 30.05 in 10.0 mi SW 5.8 mph - N/A   Clear
8:53 AM 37.9 °F 32.1 °F 16.0 °F 41% 30.04 in 10.0 mi SW 8.1 mph - N/A   Clear
9:53 AM 39.9 °F 35.1 °F 17.1 °F 40% 30.01 in 10.0 mi SSW 6.9 mph - N/A   Partly Cloudy
10:53 AM 45.0 °F 39.7 °F 18.0 °F 34% 29.98 in 10.0 mi South 10.4 mph - N/A   Overcast
11:53 AM 48.0 °F - 18.0 °F 30% 29.94 in 10.0 mi SW 10.4 mph - N/A   Clear
12:53 PM 52.0 °F - 19.9 °F 28% 29.92 in 10.0 mi SW 8.1 mph - N/A   Mostly Cloudy
1:53 PM 52.0 °F - 24.1 °F 34% 29.88 in 10.0 mi West 15.0 mph 20.7 mph N/A   Overcast
2:12 PM 55.4 °F - 26.6 °F 33% 29.86 in 10.0 mi West 17.3 mph - N/A   Scattered Clouds
2:53 PM 55.9 °F - 28.0 °F 34% 29.83 in 10.0 mi WNW 16.1 mph 19.6 mph N/A   Partly Cloudy
3:53 PM 55.0 °F - 28.9 °F 37% 29.81 in 10.0 mi WSW 10.4 mph - N/A   Mostly Cloudy
4:53 PM 55.9 °F - 30.9 °F 39% 29.80 in 10.0 mi West 13.8 mph - N/A   Clear
5:53 PM 57.0 °F - 30.0 °F 36% 29.79 in 10.0 mi WSW 13.8 mph - N/A   Clear
6:53 PM 55.0 °F - 28.9 °F 37% 29.80 in 10.0 mi West 16.1 mph - N/A   Clear
7:53 PM 53.1 °F - 30.0 °F 41% 29.81 in 10.0 mi West 12.7 mph - N/A   Scattered Clouds
8:53 PM 53.1 °F - 28.9 °F 40% 29.82 in 10.0 mi West 16.1 mph - N/A   Clear
9:53 PM 50.0 °F - 30.0 °F 46% 29.82 in 10.0 mi West 8.1 mph - N/A   Clear
10:53 PM 50.0 °F - 30.0 °F 46% 29.81 in 10.0 mi West 9.2 mph - N/A   Clear
11:53 PM 46.0 °F 42.5 °F 30.0 °F 54% 29.81 in 10.0 mi WSW 6.9 mph - N/A   Clear